Orbital Elements
Epoch 2022 Jan. 21.0 TT = JDT 2459600.5
T 2021 Feb. 10.16763 TT Rudenko
q 2.1033575 (2000.0) P Q
n 0.14667839 Peri. 238.80904 +0.56972067 -0.82175179
a 3.5608906 Node 176.39211 +0.80370905 +0.55406167
e 0.4093170 Incl. 10.92955 +0.17166865 +0.13319034
P 6.72
From 349 observations 2013 Aug. 15-2022 Feb. 24, mean residual 0".6.
|